Tracking 28799 objects as of 18-Apr-2024
HD Live streaming from Space Station
objects crossing your sky now

METEOR 2-8 DEB

Track METEOR 2-8 DEB now!
10-day predictions


NORAD ID: 36345
Int'l Code: 1982-025AF
Perigee: 828.0 km
Apogee: 860.4 km
Inclination: 82.5 °
Period: 101.7 minutes
Semi major axis: 7215 km
RCS: 0.0076 m2 (small)
Launch date: March 25, 1982
Source: Commonwealth of Independent States (former USSR) (CIS)
Launch site: PLESETSK MISSILE AND SPACE COMPLEX (PKMTR)

Note: This is SATELLITE DEBRIS
Your satellite tracking list
Your tracking list is empty




NASA's NSSDC Master Catalog

Two Line Element Set (TLE):
1 36345U 82025AF  24108.86435268  .00007841  00000-0  39183-2 0  9991
2 36345  82.5397 154.4869 0022454 335.6720  24.3396 14.16537448553235
Source of the keplerian elements: AFSPC